#timestamp,LO_Frequency,Hit,StdDev 
1551859215.9,286047000.7,N
1551859235.7,286047000.7,N
1551859255.5,286047002.5,N
1551859275.4,286047001.9,N
1551859295.2,286047001.9,N
1551859315.0,286047002.1,N
1551859315.9,286047002.1,N
1551859335.8,286047004.3,N
1551859355.6,286047003.9,N
1551859375.5,286047003.4,N
1551859395.3,286047005.3,N
1551859415.1,286047003.2,N
1551859435.9,286047003.1,N
1551859455.7,286047004.2,N
1551859475.5,286047000.2,N
1551859495.4,286047001.0,N
1551859515.2,286047001.1,N
1551859535.1,286047000.1,N
1551859536.0,286047000.1,N
1551859555.8,286047002.7,N
1551859575.6,286047004.2,N
1551859595.5,286047003.4,N
1551859615.3,286047003.8,N
1551859635.1,286047003.8,N
1551859655.9,286047003.7,N
1551859675.7,286047003.9,N
1551859695.6,286047003.3,N
1551859715.4,286047003.4,N
1551859735.2,286047003.5,N
1551859755.1,286047003.9,N
1551859756.0,286047003.9,N
1551859775.8,286047000.4,N
1551859795.7,286047001.5,N
1551859815.5,286047003.7,N
1551859835.3,286047003.3,N
1551859855.2,286047004.1,N
1551859875.0,286047002.5,N
1551859875.9,286047002.5,N
1551859895.7,286047000.5,N
1551859915.6,286047000.0,N
1551859935.4,286047002.2,N
1551859955.3,286047001.9,N
1551859975.1,286047002.4,N
1551859976.0,286047002.4,N
1551859995.8,286047000.1,N
1551860015.7,286047002.4,N
1551860035.5,286047000.2,N
1551860055.3,286047000.5,N
1551860075.2,286047000.3,N
1551860095.0,286047000.7,N
1551860095.9,286047000.7,N
1551860115.8,286046998.1,N
1551860135.6,286046999.4,N
1551860155.4,286047001.0,N
1551860175.3,286047002.5,N
1551860195.1,286047002.3,N
1551860215.8,286047002.7,N
1551860235.7,286047000.6,N
1551860255.5,286046999.0,N
1551860275.4,286046998.1,N
1551860295.2,286047001.2,N
1551860315.0,286047001.6,N
1551860315.9,286047001.6,N
1551860335.8,286047003.9,N
1551860355.6,286047003.8,N
1551860375.5,286047004.5,N
1551860395.3,286047005.7,Y
1551860415.1,286047003.7,P
1551860435.9,286047003.4,N
1551860455.7,286047004.3,P
1551860475.5,286047001.8,N
1551860495.4,286047002.5,N
1551860515.2,286047004.4,Y
1551860535.1,286047000.3,P
1551860536.0,286047000.3,N
1551860555.8,286047002.2,N
1551860575.6,286047000.1,N
1551860595.5,286046998.2,N
1551860615.3,286046999.0,N
1551860635.2,286046999.1,N
1551860655.9,286047001.1,N
1551860675.7,286047000.5,N
1551860695.6,286047000.9,N
1551860715.4,286047000.7,N
1551860735.2,286047002.4,N
1551860755.1,286047000.2,N
1551860756.0,286047000.2,N
1551860775.8,286047001.2,N
1551860795.7,286046998.7,N
1551860815.5,286046998.4,N
1551860835.3,286047001.1,N
1551860855.2,286047000.4,N
1551860875.0,286046999.6,N
1551860875.9,286046999.6,N
1551860895.8,286046996.9,N
1551860915.6,286046997.7,N
1551860935.4,286046995.4,Y
1551860955.3,286046995.5,P
1551860975.1,286046996.4,N
1551860995.8,286046993.7,P
1551861015.7,286046998.0,N
1551861035.5,286046996.5,N
1551861055.4,286046999.6,N
1551861075.2,286046998.9,N
1551861095.0,286046998.3,N
1551861095.9,286046998.3,N
1551861115.8,286047000.6,N
1551861135.6,286046999.5,N
1551861155.5,286046998.6,N
1551861175.3,286047000.3,N
1551861195.1,286046999.0,N
1551861215.9,286046999.3,N
1551861235.7,286047000.7,N
1551861255.5,286047000.9,N
1551861275.4,286047000.5,N
1551861295.2,286046998.1,N
1551861315.1,286047000.8,N
1551861316.0,286047000.8,N
1551861335.8,286046998.3,N
1551861355.6,286046998.4,N
1551861375.5,286046997.7,N
1551861395.3,286046999.0,N
1551861415.1,286046999.5,N
1551861435.9,286046998.9,N
1551861455.7,286046999.5,N
1551861475.6,286046998.8,N
1551861495.4,286046998.1,N
1551861515.2,286046998.9,N
1551861535.1,286046998.3,N
1551861536.0,286046998.3,N
1551861555.8,286046998.8,N
1551861575.6,286046996.9,N
1551861595.5,286046999.0,N
1551861615.3,286046999.2,N
1551861635.2,286046999.3,N
1551861655.9,286046998.7,N
1551861675.7,286046997.0,Y
1551861695.6,286046995.5,P
1551861715.4,286046995.6,N
1551861735.3,286046997.5,N
1551861755.1,286046997.2,N
1551861756.0,286046997.2,N
1551861775.8,286046997.7,N
1551861795.7,286046997.2,N
1551861815.5,286046998.8,N
1551861835.3,286046998.1,N
1551861855.2,286047011.9,Y
1551861875.0,286047004.0,P
1551861875.9,286047004.0,N
1551861895.8,286047001.4,N
1551861915.6,286047004.4,N
1551861935.4,286047003.9,N
1551861955.3,286047003.2,N
1551861975.1,286047001.3,N
1551861995.9,286047002.6,N
1551862015.7,286047002.2,N
1551862035.5,286047001.6,N
1551862055.4,286047004.3,N
1551862075.2,286047001.3,N
1551862095.1,286047001.7,N
1551862096.0,286047001.7,N
1551862115.8,286047001.8,N
1551862135.6,286047002.0,N
1551862155.5,286047001.7,N
1551862175.3,286047001.9,N
1551862195.1,286047004.1,N
1551862215.9,286047003.5,N
1551862235.7,286047001.3,N
1551862255.6,286047004.1,N
1551862275.4,286047001.3,N
1551862295.2,286047001.8,N
1551862315.1,286047002.1,N
1551862316.0,286047002.1,N
1551862335.8,286047001.8,N
1551862355.6,286047003.6,N
1551862375.5,286047003.2,N
1551862395.3,286047003.4,N
1551862415.2,286047005.7,Y
1551862435.9,286047001.7,P
1551862455.7,286047002.6,P
1551862475.6,286047002.7,P
1551862495.4,286047000.2,N
1551862515.2,286046999.9,N
1551862535.1,286047000.2,N
1551862536.0,286047000.2,N
1551862555.8,286047000.2,N
1551862575.7,286047002.5,N
1551862595.5,286047002.6,N
1551862615.3,286047002.8,N
1551862635.2,286047000.3,N
1551862655.0,286047002.4,N
1551862655.9,286047002.4,N
1551862675.8,286047000.1,N
1551862695.6,286047001.2,N
1551862715.4,286047000.4,N
1551862735.3,286047001.8,N
1551862755.1,286047001.8,N
1551862775.9,286046999.9,N
1551862795.7,286047002.6,N
